Regional Weather Roundup
Issued by NWS

Home | Current Version | Previous Version | Text Only | Print | Product List | Glossary Off
Versions: 1 2 3 4 5 6 7 8 9 10 11 12 13 14 15 16 17 18 19 20 21 22 23 24 25 26 27 28 29 30 31 32 33 34 35 36 37 38 39 40 41 42 43 44 45 46 47 48 49 50

868
ASUS43 KLOT 280304
RWRIL

ILLINOIS REGIONAL WEATHER ROUNDUP
NATIONAL WEATHER SERVICE CHICAGO/ROMEOVILLE IL
1000 PM CDT SAT MAY 27 2017

NOTE: "FAIR" INDICATES FEW OR NO CLOUDS BELOW 12,000 FEET WITH NO
SIGNIFICANT WEATHER AND/OR OBSTRUCTIONS TO VISIBILITY.

* THESE STATIONS ARE NOT UNDER NWS QUALITY CONTROL. THEY ALSO MAY NOT
  REPORT WEATHER SUCH AS PRECIPITATION OR FOG.

ILZ001-002-007-009-015-016-024-280400-
NORTHWEST ILLINOIS

CITY           SKY/WX    TMP DP  RH WIND       PRES   REMARKS
MOLINE         CLOUDY    66  60  81 CALM      29.82R
STERLING*      CLOUDY    68  64  87 CALM      29.84R
SAVANNA*       CLOUDY    67  60  77 N3        29.83R
$$

ILZ003-004-008-010-011-017-018-280400-
NORTH CENTRAL ILLINOIS

CITY           SKY/WX    TMP DP  RH WIND       PRES   REMARKS
ROCKFORD       CLOUDY    71  61  70 N5        29.84R
FREEPORT*      CLOUDY    64  57  79 NE3       29.85R
ROCHELLE*      CLOUDY    69  65  87 CALM      29.84R
DE KALB*       CLOUDY    66  59  77 E8        29.85R
PERU*          CLOUDY    68  63  84 NE5       29.83R
$$

ILZ005-006-012>014-019>023-280400-
NORTHEAST ILLINOIS

CITY           SKY/WX    TMP DP  RH WIND       PRES   REMARKS
CHICAGO-OHARE  CLOUDY    65  53  65 E5        29.84R
CHICAGO-MIDWAY CLOUDY    62  53  72 E6        29.85R
AURORA         MOCLDY    68  58  70 E5        29.85R
LANSING*       CLOUDY    61  56  85 E3        29.85R
JOLIET*        CLEAR     67  59  74 CALM      29.84R
WAUKEGAN       MOCLDY    59  54  83 CALM      29.84R
DUPAGE AIRPORT CLOUDY    66  57  72 E5        29.84R
KANKAKEE*      CLOUDY    66  61  84 CALM      29.85R
WHEELING       CLOUDY    62  55  77 SE3       29.86R
MORRIS*        CLEAR     67  61  81 CALM      29.82R
ROMEOVILLE*    CLEAR     62  58  86 E3        29.85R
NORTHERLY ISL    N/A     55  50  83 CALM        N/A
$$

LMZ740>746-280400-
SOUTHERN LAKE MICHIGAN

STATION/POSITION SKY/WX   TEMP    WIND        PRES    VSBY  WAVE
                          AIR SEA DIR/SP/G                  HT/PER
                          (F)     (DEG/KT/KT) (MB)    (MI)  (FT/S)
SOUTHERN BUOY              54 51   90/  4/  6 1010.9          0
WILMETTE HARBOR            52 54                N/A           0
HARRISON CRIB              55     120/  5/  6   N/A
BURNHAM HARBOR             55      CALM  /  3   N/A
CALUMET HARBOR             57      70/  4/  6 1010.0R
BURNS HARBOR               58      80/  6/  7 1010.8F
MICHIGAN CITY              60      70/  6/  6   N/A
MICHIGAN CITY 6N           57 56   80/  4/  6   N/A           0
ST. JOSEPH                 59 59   50/  4/  4 1010.8F         1
$$

ILZ025>027-034>036-040-047-049-050-058-095>099-280400-
WEST-CENTRAL ILLINOIS

CITY           SKY/WX    TMP DP  RH WIND       PRES   REMARKS
QUINCY         CLOUDY    67  64  90 CALM      29.79R
GALESBURG*     CLOUDY    64  61  91 N6        29.82R
MACOMB*        CLOUDY    67  64  90 N8        29.81F
JACKSONVILLE*  CLOUDY    65  62  89 E3        29.79R
PITTSFIELD*    CLOUDY    68  65  89 W3        29.80R
$$

ILZ028>032-037-038-041>044-048-051>054-059>061-280400-
CENTRAL ILLINOIS

CITY           SKY/WX    TMP DP  RH WIND       PRES   REMARKS
PONTIAC        CLOUDY    69  68  97 CALM      29.84R
BLOOMINGTON    CLOUDY    67  62  84 E8        29.84R
DECATUR        CLOUDY    71  64  78 SE6       29.83R
PEORIA         CLOUDY    69  64  84 NE3       29.81R
LACON*         CLOUDY    68  65  90 E3        29.81R
LINCOLN*       CLOUDY    72  65  78 E5        29.81R
SPRINGFIELD    CLOUDY    69  61  75 SE6       29.78S
TAYLORVILLE    CLOUDY    65  61  86 S9        29.82R
$$

ILZ033-039-045-046-055>057-062-063-280400-
EAST-CENTRAL ILLINOIS

CITY           SKY/WX    TMP DP  RH WIND       PRES   REMARKS
CHAMPAIGN      CLOUDY    67  63  87 E8        29.82R
RANTOUL*       CLOUDY    68  66  92 E8        29.83R
MATTOON        CLOUDY    70  66  87 E7        29.81R
PARIS*         CLOUDY    67  65  93 E5        29.83R
$$

ILZ079-100>102-280400-
SOUTHWEST ILLINOIS

CITY           SKY/WX    TMP DP  RH WIND       PRES   REMARKS
ALTON          MOCLDY    64  59  82 W7        29.78R
BELLEVILLE     CLOUDY    66  61  82 SW12      29.77R
CAHOKIA*       CLOUDY    67  59  75 S5        29.75R
SPARTA*        CLOUDY    65  60  81 W7        29.81R
$$

ILZ064>066-069>071-074>076-080>082-084>086-088>090-092>094-280400-
SOUTH-CENTRAL ILLINOIS

CITY           SKY/WX    TMP DP  RH WIND       PRES   REMARKS
CARBONDALE     LGT RAIN  63  63 100 S13       29.80F
CAIRO*         TSTM      65  64  94 CALM      29.89R
EFFINGHAM*     CLOUDY    68  64  89 S3        29.83R
MARION         RAIN      64  64 100 S5        29.83F
MT. VERNON       N/A     64  61  90 CALM      29.77S
CENTRALIA*     CLOUDY    66  61  85 SE6       29.75R
SALEM*         CLOUDY    68  59  72 S5        29.76R
$$

ILZ067-068-072-073-078-083-087-091-280400-
SOUTHEAST ILLINOIS

CITY           SKY/WX    TMP DP  RH WIND       PRES   REMARKS
LAWRENCEVILLE  CLOUDY    71  66  84 S7        29.80F
FLORA*         CLOUDY    69  61  76 CALM      29.77F
FAIRFIELD*     CLOUDY    68  61  77 SE12      29.73F
HARRISBURG*    RAIN      64  63  96 S14       29.84R
ROBINSON*      CLOUDY    71  66  84 S6        29.80F
CARMI*         CLOUDY    66  62  87 S7        29.79F
$$

ABBREVIATIONS USED IN REMARKS
   TC - TEMPERATURE IN CELSIUS
  WCI - WIND CHILL INDEX
   HX - HEAT INDEX
  VSB - VISIBILITY
$$





USA.gov is the U.S. government's official web portal to all federal, state and local government web resources and services.